User: anonymous
Location: Irma
(52.9170°N, 111.2330°W)
Time: 05:28:53
(UTC-06:00)
Language:

Meteor 1-24 Rocket - Orbit

View from above orbital plane
View from above orbital plane
View from above satellite
View from above satellite

Ground track
Ground track

The orbit data is extracted from the following two-line orbital elements,

1 08800U 76032B   14211.81617512  .00000057  00000-0  24730-4 0   728
2 08800 081.2531 161.0133 0093198 284.9947 101.0377 14.09961880969881
Epoch (UTC): 30 July 2014 19:35:17
Eccentricity: 0.0093198
inclination: 81.2531°
perigee height: 792 km
apogee height: 927 km
right ascension of ascending node: 161.0133°
argument of perigee: 284.9947°
revolutions per day: 14.09961880
mean anomaly at epoch: 101.0377°
orbit number at epoch: 96988

The dashed part of the orbit path shows where the satellite is in the earth's shadow,  

DLR